Location: Newark
(43.4306°N, 0.3089°E)
Time: 23:33:40
(UTC+00:00)

Transit 2A Rocket - Pass Details

Date: 25 August 2019
Orbit: 592 x 911 km, 66.7° (Epoch: 20 September)

Event Time Altitude Azimuth Distance (km) Brightness Sun altitude
Rises 19:10:16 0° 230° (SW) 3,440 8.8 -4.9°
Reaches altitude 10° 19:12:57 10° 237° (WSW) 2,466 8.2 -5.4°
Maximum altitude 19:18:20 42° 308° (NW) 1,131 6.6 -6.3°
Drops below altitude 10° 19:23:19 10° 19° (NNE) 2,280 7.5 -7.1°
Sets 19:25:43 0° 27° (NNE) 3,154 8.1 -7.5°
